Showing default

ITAMSAT, 22826

Orbit data source: Space-Track

ITAMSAT, 22826 is a payload satellite owned by Satellife (IT) in SSO that was launched on Sun, 26 Sep 1993 UTC via an ARIANE 40 launch vehicle from the French Guiana (FRGUI). Payload-class satellites include a variety of spacecraft equipped with specific instruments for various scientific and technological missions. These include communications satellites like Starlink; space stations such as the ISS; scientific satellites like the Hubble; Earth observation satellites from companies like Planet Labs, Umbra, and HawkEye 360; GPS; miniature CubeSats for education and research; and military/defense satellites.

Loading next visibility...
Identifier
22826, 1993-061D
Orbit
SSO
Country
Flag of ITIT
Related business
Manufacturer
SSTL
Mission
Partially operational Commercial Communications
Bus & Motor
UOSAT, Unknown motor
Mass
50 kg wet, 50 kg dry
Launch date (UTC)
1993-09-26 (32 years ago)
Launch vehicle
ARIANE 40
Launch site
French Guiana (FRGUI)
Object type
Payload
Rocket body
Debris
Shape & HBR
Box + 1 Ant, 3.3 m
Radar Cross Section
0.597 m², Medium (>0.1 m² and < 1m²)

Expand to show TLE details & history
Last TLE update: 12 hours ago

TLE from 12 hours ago
0 ITAMSAT
1 22826U 93061D   25258.11050615  .00000075  00000-0  45244-4 0  9995
2 22826  98.7223 320.0016 0009226 164.5493 195.5973 14.31244804667960
Epoch: 2025-09-15T02:39Z
TLE epoch observation values (Epoch: 2025-09-15T02:39:07.731Z)
Latitude
-0.00001°
Longitude
-74.10047°
Altitude
796.872 km
Speed
7.452 km/s
True Right ascension
21h 20m 00s
True Declination
0° 00' 00"
Sunlit
Object was in full shadow at epoch
Visualization orbit readout
Latitude
Unknown
Longitude
Unknown
Altitude
Unknown
Speed
Unknown
Apparent Right ascension
Unknown
Apparent Declination
Unknown
Sunlit
N/A
Visualization observer readout
Local Sidereal Time
06:52:10
Azimuth
Unknown
Elevation
Unknown
Doppler factor
Unknown
Orbital elements
Apogee altitude
791.326 km
Perigee altitude
778.109 km
Semi-major axis
7,162.854 km
Eccentricity
0.00092
Inclination
98.7223°
RAAN
320.0016°
Arg. of periapsis
164.5493°
True anomaly
195.56891°
Mean anomaly
195.5973°
Eccentric anomaly
195.5831°
Mean motion
3.58026 °/min
Orbital period
100.55 mins
BSTAR
0.000045244
Loading maneuver chart data...
Computing Atmospheric mass density...
Loading historical data...
Loading historical data...
Loading historical data...
Loading historical data...
Loading historical data...
Loading historical data...
Loading historical data...

Documentation

Showing up to 5 results
|